period_start,C,m1,H,J0,J1,J2,J3,J4,J5,JA,JB,JC,JD,JJ,JK,JN,#
2018-02-24 00:00:13,0.09,0.78,0.00,22.31,25.58,28.78,14.18,47.32,1036.15,2033.00,3109.44,2892.62,3306.96,599.58,608.49,6.58,0000 0000 0000 0000 000000
2018-02-24 00:05:15,0.09,0.78,0.00,22.34,25.60,28.79,14.22,47.33,1036.15,2033.00,3107.60,2891.46,3305.53,599.88,608.71,6.63,0000 0000 0000 0000 000000
2018-02-24 00:10:16,0.08,0.79,0.00,22.36,25.61,28.81,14.21,47.42,1036.15,2033.00,3105.83,2890.39,3304.12,599.90,608.71,6.68,0000 0000 0000 0000 000000
2018-02-24 00:15:17,0.08,0.79,0.00,22.37,25.62,28.83,14.28,47.33,1036.15,2032.99,3104.01,2889.27,3302.63,600.15,608.88,6.73,0000 0000 0000 0000 000000
2018-02-24 00:20:19,0.08,0.80,0.00,22.38,25.63,28.83,14.21,47.27,1036.15,2032.98,3102.12,2888.08,3301.12,600.26,608.97,6.78,0000 0000 0000 0000 000000
2018-02-24 00:25:20,0.09,0.80,0.00,22.40,25.65,28.83,14.21,47.19,1036.15,2032.99,3100.37,2886.94,3299.72,600.06,608.79,6.83,0000 0000 0000 0000 000000
2018-02-24 00:30:21,0.08,0.80,0.00,22.42,25.66,28.86,14.19,47.28,1036.16,2032.99,3098.51,2885.80,3298.26,599.80,608.56,6.88,0000 0000 0000 0000 000000
2018-02-24 00:35:22,0.08,0.81,0.00,22.43,25.67,28.88,14.23,47.29,1036.16,2032.98,3096.73,2884.74,3296.82,599.85,608.50,6.93,0000 0000 0000 0000 000000
2018-02-24 00:40:24,0.08,0.81,0.00,22.44,25.69,28.88,14.20,47.32,1036.16,2032.95,3094.91,2883.57,3295.42,599.88,608.51,6.98,0000 0000 0000 0000 000000
2018-02-24 00:45:25,0.07,0.82,0.00,22.47,25.70,28.90,14.17,47.13,1036.21,2032.87,3093.19,2882.47,3293.91,600.16,608.61,7.03,0000 0000 0000 0000 000000
2018-02-24 00:50:26,0.06,0.82,0.00,22.50,25.72,28.91,14.18,47.44,1036.24,2032.70,3091.58,2881.42,3292.56,599.41,607.91,7.08,0000 0000 0000 0000 000000
2018-02-24 00:55:27,0.04,0.82,0.00,22.51,25.73,28.94,14.16,47.37,1036.19,2032.35,3089.87,2880.43,3291.24,600.19,608.82,7.13,0000 0000 0000 0000 000000
2018-02-24 01:00:29,0.07,0.83,0.00,22.55,25.75,28.93,14.19,47.34,1036.18,2032.14,3088.13,2879.38,3289.82,599.81,608.25,7.18,0000 0000 0000 0000 000000
2018-02-24 01:05:30,0.07,0.83,0.00,22.58,25.77,28.96,14.22,47.33,1036.17,2032.07,3086.50,2878.49,3288.52,600.21,608.61,7.23,0000 0000 0000 0000 000000
2018-02-24 01:10:32,0.07,0.83,0.00,22.60,25.79,28.97,14.17,47.37,1036.19,2032.03,3084.84,2877.48,3287.16,599.57,608.06,7.28,0000 0000 0000 0000 000000
2018-02-24 01:15:33,0.08,0.84,0.00,22.62,25.80,28.99,14.23,47.39,1036.29,2032.01,3083.18,2876.42,3285.69,599.74,608.09,7.33,0000 0000 0000 0000 000000
2018-02-24 01:20:35,0.07,0.84,0.00,22.63,25.82,28.98,14.27,47.27,1036.20,2032.00,3081.50,2875.34,3284.36,600.29,608.60,7.38,0000 0000 0000 0000 000000
2018-02-24 01:25:36,0.08,0.85,0.00,22.65,25.84,29.01,14.17,47.29,1036.20,2032.00,3079.76,2874.28,3283.01,599.84,607.98,7.43,0000 0000 0000 0000 000000
2018-02-24 01:30:38,0.08,0.85,0.00,22.69,25.86,29.03,14.15,47.31,1036.20,2032.00,3078.18,2873.31,3281.68,600.14,608.28,7.48,0000 0000 0000 0000 000000
2018-02-24 01:35:39,0.08,0.85,0.00,22.70,25.87,29.05,14.22,47.36,1036.21,2032.00,3076.45,2872.17,3280.33,600.20,608.43,7.53,0000 0000 0000 0000 000000
2018-02-24 01:40:40,0.08,0.86,0.00,22.71,25.90,29.07,14.20,47.46,1036.18,2031.99,3074.69,2871.12,3278.87,600.04,608.18,7.58,0000 0000 0000 0000 000000
2018-02-24 01:45:41,0.08,0.86,0.00,22.74,25.91,29.08,14.24,47.49,1036.17,2031.99,3073.06,2870.04,3277.55,600.04,608.00,7.63,0000 0000 0000 0000 000000
2018-02-24 01:50:42,0.07,0.87,0.00,22.76,25.93,29.10,14.21,47.51,1036.16,2031.97,3071.36,2868.95,3276.07,599.83,607.72,7.68,0000 0000 0000 0000 000000
2018-02-24 01:55:43,0.08,0.87,0.00,22.79,25.95,29.12,14.17,47.53,1036.16,2031.96,3069.79,2867.94,3274.75,599.76,607.72,7.73,0000 0000 0000 0000 000000
2018-02-24 02:00:45,0.06,0.87,0.00,22.81,25.97,29.14,14.13,47.52,1036.15,2031.93,3068.26,2866.94,3273.53,600.16,608.01,7.78,0000 0000 0000 0000 000000
2018-02-24 02:05:46,0.06,0.88,0.00,22.83,25.98,29.17,14.15,47.52,1036.15,2031.78,3066.59,2865.87,3272.15,600.00,607.85,7.83,0000 0000 0000 0000 000000
2018-02-24 02:10:47,0.05,0.88,0.00,22.85,26.00,29.17,14.14,47.50,1036.15,2031.44,3064.87,2864.86,3270.73,599.67,607.45,7.88,0000 0000 0000 0000 000000
2018-02-24 02:15:49,0.04,0.88,0.00,22.87,26.02,29.19,14.10,47.55,1036.15,2031.16,3063.27,2863.86,3269.43,599.65,607.39,7.93,0000 0000 0000 0000 000000
2018-02-24 02:20:50,0.08,0.89,0.00,22.88,26.04,29.21,14.17,47.50,1036.15,2031.06,3061.62,2862.79,3268.10,600.04,607.69,7.98,0000 0000 0000 0000 000000
2018-02-24 02:25:51,0.06,0.89,0.00,22.90,26.06,29.24,14.21,47.53,1036.15,2031.03,3060.10,2861.85,3266.84,600.09,607.70,8.03,0000 0000 0000 0000 000000
2018-02-24 02:30:52,0.08,0.89,0.00,22.92,26.08,29.25,14.22,47.65,1036.14,2031.03,3058.49,2860.85,3265.52,600.11,607.61,8.08,0000 0000 0000 0000 000000
2018-02-24 02:35:53,0.07,0.90,0.00,22.95,26.10,29.26,14.20,47.60,1036.14,2031.00,3056.81,2859.81,3264.17,600.11,607.68,8.13,0000 0000 0000 0000 000000
2018-02-24 02:40:55,0.07,0.90,0.00,22.98,26.12,29.30,14.14,47.46,1036.15,2031.00,3055.28,2858.75,3262.91,599.66,607.26,8.18,0000 0000 0000 0000 000000
2018-02-24 02:45:56,0.08,0.91,0.00,23.01,26.14,29.31,14.19,47.44,1036.11,2031.00,3053.66,2857.77,3261.71,599.88,607.42,8.23,0000 0000 0000 0000 000000
2018-02-24 02:50:57,0.08,0.91,0.00,23.03,26.16,29.34,14.21,47.53,1035.93,2031.00,3052.02,2856.73,3260.36,600.12,607.55,8.28,0000 0000 0000 0000 000000
2018-02-24 02:55:59,0.07,0.91,0.00,23.07,26.18,29.34,14.22,47.56,1035.98,2030.99,3050.48,2855.82,3259.06,600.47,607.72,8.33,0000 0000 0000 0000 000000
2018-02-24 03:01:00,0.08,0.92,0.00,23.10,26.20,29.36,14.18,47.47,1035.94,2030.98,3048.86,2854.75,3257.73,599.80,606.95,8.38,0000 0000 0000 0000 000000
2018-02-24 03:06:01,0.07,0.92,0.00,23.12,26.22,29.39,14.18,47.45,1035.83,2030.97,3047.28,2853.67,3256.39,599.50,606.78,8.43,0000 0000 0000 0000 000000
2018-02-24 03:11:02,0.06,0.93,0.00,23.13,26.24,29.40,14.20,47.48,1035.77,2030.87,3045.68,2852.71,3255.06,600.40,607.40,8.48,0000 0000 0000 0000 000000
2018-02-24 03:16:03,0.03,0.93,0.00,23.16,26.26,29.44,14.12,47.43,1035.78,2030.30,3044.01,2851.59,3253.67,599.94,606.98,8.53,0000 0000 0000 0000 000000
2018-02-24 03:21:05,0.06,0.93,0.00,23.18,26.28,29.44,14.09,47.45,1035.87,2030.14,3042.48,2850.62,3252.41,599.33,606.36,8.58,0000 0000 0000 0000 000000
2018-02-24 03:26:06,0.07,0.93,0.00,23.19,26.30,29.48,14.09,47.48,1035.81,2030.03,3040.86,2849.59,3251.07,599.51,606.39,8.63,0000 0000 0000 0000 000000
2018-02-24 03:31:08,0.07,0.94,0.00,23.21,26.32,29.50,14.20,47.53,1035.78,2030.03,3039.45,2848.65,3249.81,599.97,606.84,8.68,0000 0000 0000 0000 000000
2018-02-24 03:36:09,0.08,0.94,0.00,23.24,26.34,29.51,14.11,47.55,1035.68,2030.01,3037.71,2847.60,3248.48,599.53,606.42,8.73,0000 0000 0000 0000 000000
2018-02-24 03:41:10,0.07,0.95,0.00,23.27,26.36,29.53,14.16,47.51,1035.66,2030.00,3036.14,2846.52,3247.14,599.62,606.15,8.78,0000 0000 0000 0000 000000
2018-02-24 03:46:11,0.08,0.95,0.00,23.28,26.39,29.55,14.15,47.51,1035.66,2030.00,3034.59,2845.54,3245.77,599.86,606.43,8.83,0000 0000 0000 0000 000000
2018-02-24 03:51:13,0.07,0.95,0.00,23.30,26.41,29.58,14.16,47.50,1035.66,2030.00,3032.92,2844.51,3244.45,600.03,606.57,8.88,0000 0000 0000 0000 000000
2018-02-24 03:56:14,0.08,0.96,0.00,23.34,26.43,29.61,14.14,47.48,1035.66,2029.99,3031.15,2843.31,3242.91,600.30,606.82,8.93,0000 0000 0000 0000 000000
2018-02-24 04:01:15,0.08,0.96,0.00,23.38,26.46,29.63,14.21,47.53,1035.66,2029.97,3029.50,2842.23,3241.54,600.19,606.64,8.99,0000 0000 0000 0000 000000
2018-02-24 04:06:17,0.07,0.97,0.00,23.41,26.48,29.65,14.08,47.61,1035.66,2029.91,3027.90,2841.21,3240.24,599.65,605.96,9.04,0000 0000 0000 0000 000000
2018-02-24 04:11:18,0.05,0.97,0.00,23.44,26.51,29.68,14.17,47.58,1035.63,2029.76,3026.24,2840.20,3238.81,599.99,606.27,9.09,0000 0000 0000 0000 000000
2018-02-24 04:16:20,0.04,0.97,0.00,23.47,26.53,29.69,14.17,47.58,1035.62,2029.34,3024.63,2839.13,3237.51,600.02,606.22,9.14,0000 0000 0000 0000 000000
2018-02-24 04:21:21,0.06,0.98,0.00,23.50,26.56,29.70,14.18,47.45,1035.61,2029.15,3023.07,2838.10,3236.22,600.29,606.33,9.19,0000 0000 0000 0000 000000
2018-02-24 04:26:22,0.07,0.98,0.00,23.53,26.57,29.74,14.15,47.52,1035.53,2029.03,3021.46,2837.02,3234.77,599.79,605.88,9.24,0000 0000 0000 0000 000000
2018-02-24 04:31:23,0.08,0.98,0.00,23.55,26.60,29.76,14.11,47.57,1035.49,2029.00,3019.87,2835.94,3233.41,599.94,605.92,9.29,0000 0000 0000 0000 000000
2018-02-24 04:36:24,0.07,0.99,0.00,23.58,26.63,29.77,14.19,47.51,1035.57,2029.00,3018.41,2834.93,3232.05,600.27,606.25,9.34,0000 0000 0000 0000 000000
2018-02-24 04:41:26,0.07,0.99,0.00,23.61,26.66,29.79,14.11,47.51,1035.57,2029.00,3016.96,2833.99,3230.76,599.47,605.35,9.39,0000 0000 0000 0000 000000
2018-02-24 04:46:27,0.07,0.99,0.00,23.63,26.68,29.81,14.10,47.54,1035.61,2028.97,3015.52,2833.00,3229.48,599.35,605.26,9.44,0000 0000 0000 0000 000000
2018-02-24 04:51:28,0.06,1.00,0.00,23.66,26.71,29.85,14.11,47.48,1035.66,2028.98,3014.05,2832.06,3228.19,600.24,606.10,9.49,0000 0000 0000 0000 000000
2018-02-24 04:56:30,0.06,1.00,0.00,23.68,26.74,29.87,14.09,47.48,1035.66,2028.83,3012.55,2831.08,3226.83,599.99,605.89,9.54,0000 0000 0000 0000 000000
2018-02-24 05:01:31,0.02,1.00,0.00,23.71,26.76,29.90,14.15,47.39,1035.66,2028.32,3010.88,2830.05,3225.53,600.35,606.01,9.59,0000 0000 0000 0000 000000
2018-02-24 05:06:32,0.06,1.01,0.00,23.75,26.79,29.93,14.15,47.53,1035.66,2028.08,3009.48,2829.10,3224.38,599.86,605.80,9.64,0000 0000 0000 0000 000000
2018-02-24 05:11:33,0.07,1.01,0.00,23.78,26.82,29.96,14.20,47.46,1035.66,2028.01,3007.89,2828.10,3222.98,600.00,605.60,9.69,0000 0000 0000 0000 000000
2018-02-24 05:16:34,0.07,1.01,0.00,23.79,26.85,29.99,14.16,47.50,1035.66,2028.00,3006.55,2827.11,3221.70,599.97,605.52,9.74,0000 0000 0000 0000 000000
2018-02-24 05:21:36,0.07,1.02,0.00,23.81,26.88,30.02,14.16,47.52,1035.66,2028.00,3004.99,2826.10,3220.42,599.95,605.50,9.79,0000 0000 0000 0000 000000
2018-02-24 05:26:37,0.08,1.02,0.00,23.85,26.91,30.04,14.16,47.66,1035.66,2027.99,3003.50,2825.08,3219.00,599.49,604.84,9.84,0000 0000 0000 0000 000000
2018-02-24 05:31:38,0.07,1.03,0.00,23.88,26.94,30.06,14.21,47.51,1035.66,2027.95,3001.95,2824.11,3217.74,600.04,605.44,9.89,0000 0000 0000 0000 000000
2018-02-24 05:36:40,0.07,1.03,0.00,23.92,26.96,30.10,14.09,47.44,1035.66,2027.90,3000.40,2823.09,3216.48,599.82,605.14,9.94,0000 0000 0000 0000 000000
2018-02-24 05:41:41,0.05,1.03,0.00,23.96,26.99,30.12,14.18,47.47,1035.67,2027.66,2998.82,2822.15,3215.21,600.55,605.70,9.99,0000 0000 0000 0000 000000
2018-02-24 05:46:42,0.03,1.03,0.00,23.97,27.01,30.14,14.17,47.47,1035.67,2027.27,2997.24,2821.18,3213.88,600.06,605.23,10.04,0000 0000 0000 0000 000000
2018-02-24 05:51:43,0.07,1.04,0.00,23.99,27.04,30.17,14.10,47.44,1035.67,2027.06,2995.64,2820.16,3212.58,600.08,605.28,10.09,0000 0000 0000 0000 000000
2018-02-24 05:56:45,0.06,1.04,0.00,24.02,27.07,30.19,14.10,47.52,1035.68,2027.01,2994.12,2819.20,3211.39,599.85,604.96,10.14,0000 0000 0000 0000 000000
2018-02-24 06:01:46,0.08,1.04,0.00,24.03,27.09,30.23,14.06,47.50,1035.66,2027.00,2992.55,2818.16,3210.04,599.76,604.92,10.19,0000 0000 0000 0000 000000
2018-02-24 06:06:47,0.08,1.05,0.00,24.06,27.12,30.24,14.16,47.51,1035.66,2027.00,2991.01,2817.20,3208.74,600.02,604.92,10.24,0000 0000 0000 0000 000000
2018-02-24 06:11:49,0.07,1.05,0.00,24.11,27.15,30.27,14.07,47.56,1035.66,2027.00,2989.44,2816.16,3207.51,600.03,604.92,10.29,0000 0000 0000 0000 000000
2018-02-24 06:16:50,0.07,1.06,0.00,24.14,27.17,30.30,14.11,47.56,1035.68,2026.99,2987.82,2815.29,3206.23,600.04,604.90,10.34,0000 0000 0000 0000 000000
2018-02-24 06:21:51,0.08,1.06,0.00,24.15,27.19,30.33,14.14,47.57,1035.69,2026.96,2986.19,2814.20,3204.85,600.20,605.01,10.39,0000 0000 0000 0000 000000
2018-02-24 06:26:52,0.05,1.06,0.00,24.17,27.21,30.35,14.16,47.53,1035.67,2026.74,2984.54,2813.22,3203.50,600.16,604.98,10.44,0000 0000 0000 0000 000000
2018-02-24 06:31:54,0.04,1.07,0.00,24.18,27.23,30.38,14.14,47.56,1035.68,2026.27,2982.89,2812.18,3202.14,599.89,604.72,10.49,0000 0000 0000 0000 000000
2018-02-24 06:36:55,0.07,1.07,0.00,24.20,27.25,30.40,14.06,47.48,1035.67,2026.07,2981.28,2811.16,3200.79,599.69,604.45,10.54,0000 0000 0000 0000 000000
2018-02-24 06:41:57,0.08,1.07,0.00,24.22,27.27,30.44,14.08,47.49,1035.67,2026.03,2979.63,2810.14,3199.51,599.66,604.56,10.59,0000 0000 0000 0000 000000
2018-02-24 06:46:58,0.07,1.08,0.00,24.25,27.30,30.47,14.13,47.53,1035.69,2026.01,2978.08,2809.14,3198.37,599.79,604.46,10.64,0000 0000 0000 0000 000000
2018-02-24 06:51:59,0.08,1.08,0.00,24.27,27.31,30.47,14.09,47.52,1035.70,2026.00,2976.45,2808.10,3196.91,599.45,604.06,10.69,0000 0000 0000 0000 000000
2018-02-24 06:57:01,0.08,1.09,0.00,24.29,27.33,30.51,14.04,47.52,1035.69,2026.00,2974.81,2807.15,3195.66,599.51,604.20,10.74,0000 0000 0000 0000 000000
2018-02-24 07:02:02,0.07,1.09,0.00,24.32,27.35,30.53,14.11,47.49,1035.76,2026.00,2973.32,2806.15,3194.47,600.19,604.77,10.79,0000 0000 0000 0000 000000
2018-02-24 07:07:03,0.07,1.09,0.00,24.33,27.37,30.55,14.15,47.52,1035.74,2025.98,2971.77,2805.20,3193.24,599.86,604.45,10.84,0000 0000 0000 0000 000000
2018-02-24 07:12:04,0.07,1.10,0.00,24.37,27.40,30.57,14.08,47.43,1035.68,2025.94,2970.29,2804.22,3191.88,600.14,604.55,10.89,0000 0000 0000 0000 000000
2018-02-24 07:17:05,0.07,1.10,0.00,24.40,27.41,30.61,14.15,47.42,1035.69,2025.86,2968.75,2803.34,3190.62,600.08,604.46,10.94,0000 0000 0000 0000 000000
2018-02-24 07:22:07,0.05,1.10,0.00,24.40,27.44,30.63,14.17,47.48,1035.68,2025.67,2967.33,2802.36,3189.39,600.13,604.29,10.99,0000 0000 0000 0000 000000
2018-02-24 07:27:08,0.04,1.11,0.00,24.41,27.46,30.65,14.10,47.67,1035.71,2025.30,2965.72,2801.33,3188.06,599.92,604.24,11.04,0000 0000 0000 0000 000000
2018-02-24 07:32:09,0.07,1.11,0.00,24.43,27.49,30.68,14.14,47.57,1035.75,2025.03,2963.97,2800.22,3186.56,600.18,604.51,11.09,0000 0000 0000 0000 000000
2018-02-24 07:37:10,0.07,1.11,0.00,24.46,27.51,30.69,14.18,47.61,1035.76,2025.00,2962.40,2799.19,3185.18,600.08,604.45,11.14,0000 0000 0000 0000 000000
2018-02-24 07:42:11,0.09,1.12,0.00,24.48,27.53,30.72,14.10,47.47,1035.71,2025.00,2960.72,2798.03,3183.74,600.18,604.31,11.19,0000 0000 0000 0000 000000
2018-02-24 07:47:13,0.07,1.12,0.00,24.50,27.56,30.76,14.06,47.48,1035.68,2024.99,2959.13,2797.01,3182.42,599.78,604.07,11.24,0000 0000 0000 0000 000000
2018-02-24 07:52:14,0.07,1.13,0.00,24.52,27.58,30.77,14.04,47.50,1035.68,2024.97,2957.53,2795.99,3181.14,599.94,604.15,11.29,0000 0000 0000 0000 000000
2018-02-24 07:57:15,0.08,1.13,0.00,24.52,27.60,30.79,14.11,47.50,1035.69,2024.97,2955.90,2794.94,3179.78,599.98,604.11,11.34,0000 0000 0000 0000 000000
2018-02-24 08:02:16,0.07,1.13,0.00,24.55,27.62,30.80,14.06,47.52,1035.68,2024.84,2954.27,2793.84,3178.44,599.99,603.90,11.40,0000 0000 0000 0000 000000
2018-02-24 08:07:18,0.06,1.14,0.00,24.55,27.65,30.82,14.11,47.54,1035.70,2024.60,2952.50,2792.71,3176.98,599.66,603.68,11.45,0000 0000 0000 0000 000000
2018-02-24 08:12:19,0.08,1.14,0.00,24.56,27.66,30.85,14.15,47.52,1035.92,2024.41,2950.74,2791.63,3175.61,599.88,604.04,11.50,0000 0000 0000 0000 000000
2018-02-24 08:17:21,0.05,1.14,0.00,24.59,27.68,30.88,14.10,47.47,1035.98,2024.14,2948.92,2790.50,3174.22,599.99,604.02,11.55,0000 0000 0000 0000 000000
2018-02-24 08:22:22,0.08,1.15,0.00,24.60,27.71,30.88,14.13,47.43,1036.05,2024.04,2947.29,2789.41,3172.76,600.29,604.35,11.60,0000 0000 0000 0000 000000
2018-02-24 08:27:23,0.08,1.15,0.00,24.61,27.72,30.91,14.10,47.49,1036.10,2024.02,2945.57,2788.33,3171.43,600.10,604.28,11.65,0000 0000 0000 0000 000000
2018-02-24 08:32:25,0.07,1.16,0.00,24.62,27.75,30.93,14.08,47.41,1036.13,2024.00,2944.06,2787.36,3170.17,599.54,603.76,11.70,0000 0000 0000 0000 000000
2018-02-24 08:37:26,0.08,1.16,0.00,24.62,27.77,30.94,14.13,47.42,1036.14,2024.00,2942.54,2786.34,3168.87,600.01,604.28,11.75,0000 0000 0000 0000 000000
2018-02-24 08:42:27,0.08,1.16,0.00,24.63,27.80,30.97,14.10,47.44,1036.14,2024.00,2940.84,2785.30,3167.53,600.09,604.01,11.80,0000 0000 0000 0000 000000
2018-02-24 08:47:28,0.09,1.17,0.00,24.65,27.82,30.98,14.11,47.51,1036.07,2024.00,2939.07,2784.20,3165.99,600.01,604.12,11.85,0000 0000 0000 0000 000000
2018-02-24 08:52:30,0.08,1.17,0.00,24.66,27.84,31.02,14.07,47.38,1036.04,2023.99,2937.32,2783.09,3164.58,599.87,603.88,11.90,0000 0000 0000 0000 000000
2018-02-24 08:57:31,0.08,1.18,0.00,24.66,27.86,31.03,14.08,47.27,1036.12,2023.99,2935.56,2781.93,3163.22,599.78,603.69,11.95,0000 0000 0000 0000 000000
2018-02-24 09:02:33,0.08,1.18,0.00,24.68,27.88,31.05,14.11,47.42,1036.14,2023.98,2933.84,2780.92,3161.79,599.94,603.91,12.00,0000 0000 0000 0000 000000
2018-02-24 09:07:34,0.06,1.19,0.00,24.71,27.90,31.08,14.13,47.34,1036.15,2023.86,2932.35,2779.93,3160.51,600.41,604.46,12.05,0000 0000 0000 0000 000000
2018-02-24 09:12:35,0.03,1.19,0.00,24.70,27.92,31.08,14.09,47.32,1036.15,2023.44,2930.81,2778.89,3159.25,600.21,604.22,12.10,0000 0000 0000 0000 000000
2018-02-24 09:17:36,0.07,1.19,0.00,24.70,27.94,31.10,14.02,47.55,1036.15,2023.18,2929.30,2777.88,3157.83,599.58,603.56,12.15,0000 0000 0000 0000 000000
2018-02-24 09:22:38,0.08,1.19,0.00,24.72,27.96,31.12,14.09,47.59,1036.15,2023.07,2927.62,2776.81,3156.54,599.49,603.44,12.20,0000 0000 0000 0000 000000
2018-02-24 09:27:39,0.08,1.20,0.00,24.73,27.97,31.15,14.16,47.49,1036.15,2023.02,2925.89,2775.80,3155.18,600.08,604.06,12.25,0000 0000 0000 0000 000000
2018-02-24 09:32:40,0.07,1.20,0.00,24.73,28.00,31.16,14.12,47.52,1036.15,2023.00,2924.37,2774.82,3153.87,600.03,604.06,12.30,0000 0000 0000 0000 000000
2018-02-24 09:37:41,0.09,1.21,0.00,24.75,28.01,31.18,14.12,47.56,1036.15,2023.00,2922.75,2773.78,3152.61,600.13,604.13,12.35,0000 0000 0000 0000 000000
2018-02-24 09:42:42,0.07,1.21,0.00,24.77,28.02,31.20,14.15,47.53,1036.15,2022.99,2921.09,2772.76,3151.33,599.73,603.54,12.40,0000 0000 0000 0000 000000
2018-02-24 09:47:43,0.08,1.22,0.00,24.77,28.05,31.21,14.13,47.43,1036.16,2022.97,2919.54,2771.78,3149.98,600.14,604.02,12.45,0000 0000 0000 0000 000000
2018-02-24 09:52:45,0.07,1.22,0.00,24.79,28.06,31.22,14.06,47.41,1036.15,2022.96,2918.12,2770.81,3148.68,599.60,603.40,12.50,0000 0000 0000 0000 000000
2018-02-24 09:57:46,0.04,1.22,0.00,24.80,28.07,31.24,14.03,47.39,1036.15,2022.76,2916.91,2769.93,3147.39,599.66,603.48,12.55,0000 0000 0000 0000 000000
2018-02-24 10:02:47,0.02,1.22,0.00,24.80,28.09,31.26,14.13,47.38,1036.15,2022.19,2915.54,2769.04,3146.05,599.95,603.74,12.60,0000 0000 0000 0000 000000
2018-02-24 10:07:49,0.07,1.23,0.00,24.82,28.10,31.26,14.06,47.31,1036.15,2022.07,2913.98,2768.12,3144.88,599.94,603.87,12.65,0000 0000 0000 0000 000000
2018-02-24 10:12:50,0.07,1.23,0.00,24.82,28.12,31.27,14.14,47.38,1036.16,2022.01,2912.43,2767.15,3143.67,600.24,604.00,12.70,0000 0000 0000 0000 000000
2018-02-24 10:17:51,0.07,1.23,0.00,24.83,28.12,31.29,14.09,47.21,1036.15,2022.01,2911.03,2766.30,3142.58,599.97,604.04,12.75,0000 0000 0000 0000 000000
2018-02-24 10:22:53,0.07,1.24,0.00,24.81,28.14,31.32,14.14,47.29,1036.15,2022.00,2909.50,2765.42,3141.42,600.15,604.04,12.80,0000 0000 0000 0000 000000
2018-02-24 10:27:54,0.08,1.24,0.00,24.82,28.15,31.33,14.09,47.26,1036.15,2022.00,2907.78,2764.46,3140.30,599.88,603.69,12.85,0000 0000 0000 0000 000000
2018-02-24 10:32:55,0.07,1.25,0.00,24.83,28.15,31.34,14.13,47.34,1036.15,2022.00,2906.18,2763.63,3139.18,600.04,603.82,12.90,0000 0000 0000 0000 000000
2018-02-24 10:37:57,0.08,1.25,0.00,24.83,28.17,31.35,14.09,47.23,1036.16,2022.00,2904.66,2762.64,3137.95,600.00,603.88,12.95,0000 0000 0000 0000 000000
2018-02-24 10:42:58,0.08,1.25,0.00,24.83,28.17,31.36,14.13,47.48,1036.16,2022.00,2903.25,2761.71,3136.70,600.09,603.85,13.00,0000 0000 0000 0000 000000
2018-02-24 10:47:59,0.07,1.26,0.00,24.85,28.17,31.38,14.18,47.62,1036.18,2022.00,2901.68,2760.82,3135.59,600.64,604.29,13.05,0000 0000 0000 0000 000000
2018-02-24 10:53:01,0.06,1.26,0.00,24.83,28.19,31.38,14.06,47.50,1036.17,2021.99,2900.31,2759.95,3134.62,599.46,603.29,13.10,0000 0000 0000 0000 000000
2018-02-24 10:58:02,0.07,1.27,0.00,24.83,28.20,31.39,14.11,47.39,1036.21,2021.99,2898.82,2759.09,3133.55,599.86,603.79,13.15,0000 0000 0000 0000 000000
2018-02-24 11:03:04,0.07,1.27,0.00,24.84,28.20,31.40,14.11,47.33,1036.23,2021.98,2897.60,2758.22,3132.25,599.72,603.52,13.20,0000 0000 0000 0000 000000
2018-02-24 11:08:05,0.07,1.27,0.00,24.85,28.22,31.42,14.18,47.40,1036.20,2021.97,2896.31,2757.35,3131.11,599.93,603.67,13.25,0000 0000 0000 0000 000000
2018-02-24 11:13:06,0.07,1.28,0.00,24.84,28.22,31.44,14.11,47.30,1036.17,2021.97,2894.92,2756.51,3129.99,600.12,603.84,13.30,0000 0000 0000 0000 000000
2018-02-24 11:18:08,0.07,1.28,0.00,24.85,28.25,31.44,14.05,47.34,1036.16,2021.92,2893.38,2755.63,3128.84,599.55,603.27,13.35,0000 0000 0000 0000 000000
2018-02-24 11:23:09,0.06,1.28,0.00,24.85,28.25,31.45,14.15,47.39,1036.17,2021.80,2891.88,2754.73,3127.64,599.98,603.76,13.40,0000 0000 0000 0000 000000
2018-02-24 11:28:11,0.05,1.29,0.00,24.86,28.27,31.46,14.11,47.32,1036.16,2021.53,2890.40,2753.86,3126.46,600.06,603.73,13.45,0000 0000 0000 0000 000000
2018-02-24 11:33:12,0.05,1.29,0.00,24.86,28.27,31.48,14.10,47.42,1036.16,2021.37,2888.88,2752.98,3125.38,599.83,603.50,13.50,0000 0000 0000 0000 000000
2018-02-24 11:38:13,0.05,1.29,0.00,24.85,28.29,31.48,14.20,47.26,1036.21,2021.18,2887.59,2752.08,3124.19,600.51,604.25,13.55,0000 0000 0000 0000 000000
2018-02-24 11:43:14,0.06,1.29,0.00,24.85,28.30,31.49,14.19,47.41,1036.20,2021.09,2886.30,2751.30,3123.10,600.22,603.97,13.60,0000 0000 0000 0000 000000
2018-02-24 11:48:15,0.05,1.30,0.00,24.85,28.30,31.50,14.06,47.42,1036.17,2021.07,2884.95,2750.70,3122.01,600.03,603.78,13.65,0000 0000 0000 0000 000000
2018-02-24 11:53:17,0.05,1.30,0.00,24.85,28.32,31.50,14.05,47.41,1036.16,2021.02,2883.64,2749.91,3121.01,599.39,603.17,13.71,0000 0000 0000 0000 000000
2018-02-24 11:58:18,0.06,1.30,0.00,24.85,28.32,31.52,14.14,47.39,1036.15,2021.01,2882.42,2749.06,3120.02,600.25,603.96,13.76,0000 0000 0000 0000 000000
2018-02-24 12:03:19,0.07,1.31,0.00,24.85,28.33,31.52,14.19,47.43,1036.15,2021.01,2881.17,2748.22,3119.04,600.06,603.78,13.81,0000 0000 0000 0000 000000
2018-02-24 12:08:21,0.07,1.31,0.00,24.85,28.35,31.53,14.07,47.35,1036.15,2021.00,2879.92,2747.54,3118.00,600.04,603.94,13.86,0000 0000 0000 0000 000000
2018-02-24 12:13:22,0.05,1.31,0.00,24.85,28.35,31.54,14.10,47.35,1036.16,2021.00,2878.82,2746.78,3117.02,600.20,603.89,13.91,0000 0000 0000 0000 000000
2018-02-24 12:18:23,0.05,1.32,0.00,24.85,28.35,31.54,14.13,47.34,1036.17,2021.00,2877.77,2746.03,3116.03,600.06,603.85,13.96,0000 0000 0000 0000 000000
2018-02-24 12:23:24,0.07,1.32,0.00,24.84,28.35,31.55,14.15,47.28,1036.17,2021.00,2876.61,2745.23,3115.02,600.03,603.71,14.01,0000 0000 0000 0000 000000
2018-02-24 12:28:26,0.07,1.32,0.00,24.84,28.36,31.55,14.04,47.29,1036.17,2021.00,2875.37,2744.40,3114.01,599.82,603.57,14.06,0000 0000 0000 0000 000000
2018-02-24 12:33:27,0.05,1.33,0.00,24.83,28.37,31.56,14.10,47.24,1036.18,2021.00,2874.13,2743.74,3112.93,599.88,603.57,14.11,0000 0000 0000 0000 000000
2018-02-24 12:38:28,0.06,1.33,0.00,24.83,28.37,31.56,14.12,47.24,1036.20,2020.97,2872.94,2742.87,3111.76,599.63,603.46,14.16,0000 0000 0000 0000 000000
2018-02-24 12:43:30,0.06,1.33,0.00,24.83,28.37,31.58,14.19,47.33,1036.22,2020.97,2871.75,2742.05,3110.79,600.42,604.22,14.21,0000 0000 0000 0000 000000
2018-02-24 12:48:31,0.07,1.34,0.00,24.82,28.38,31.57,14.12,47.23,1036.21,2020.96,2870.56,2741.38,3109.73,600.10,603.91,14.26,0000 0000 0000 0000 000000
2018-02-24 12:53:32,0.06,1.34,0.00,24.82,28.39,31.58,14.18,47.33,1036.35,2020.95,2869.25,2740.56,3108.85,599.95,603.89,14.31,0000 0000 0000 0000 000000